Wind_Speed
54 54 53 53 52 51 50 49 47 46 44 44 43 42 41 41 39 39 38 37 36 35 34 33 32 32 32 31 30 30 30 30 29 29 29 28 28 28 27 27 27 26 27
56 55 55 54 54 53 52 51 49 48 46 45 44 43 43 42 41 40 39 39 38 37 35 34 34 34 33 33 32 31 31 31 31 31 30 30 30 30 29 29 28 28 28
58 58 56 55 54 54 53 52 50 49 48 46 45 44 43 43 42 41 41 40 40 39 37 36 36 35 35 34 34 33 32 32 32 31 31 31 31 30 30 30 29 29 29
58 58 57 56 55 54 54 53 52 50 49 48 46 45 44 43 42 42 42 41 41 41 39 39 38 37 36 35 35 34 34 33 33 32 32 31 31 30 30 30 29 30 30
57 57 57 57 55 54 54 54 53 52 51 49 48 46 45 44 43 43 43 42 43 43 42 41 40 39 38 37 36 36 35 35 35 34 33 33 32 32 31 30 30 30 30
56 56 57 57 56 55 54 54 54 53 52 51 50 48 46 45 44 43 43 43 43 43 43 43 42 41 40 39 38 38 37 37 36 36 35 35 34 33 33 33 32 32 32
55 55 55 56 56 56 55 54 54 54 54 53 52 51 49 47 46 45 45 44 44 43 43 43 43 43 42 41 40 39 38 38 37 37 37 36 36 35 35 34 34 33 34
53 53 54 54 55 56 56 55 55 54 54 54 53 52 51 50 49 48 47 46 46 45 44 44 44 44 44 43 42 41 40 39 38 38 37 37 37 37 37 36 35 35 35
53 52 52 53 54 55 56 56 55 55 54 54 54 53 52 51 50 49 49 48 48 47 45 45 44 44 44 44 43 42 41 40 39 38 38 38 38 38 38 38 37 36 36
53 52 52 52 53 54 55 56 55 55 55 55 54 54 53 53 52 51 50 49 49 48 47 47 46 44 43 43 43 43 42 41 41 40 39 39 39 38 38 38 37 37 37
51 51 51 52 53 54 54 55 55 55 55 55 54 54 54 53 53 52 50 50 50 49 48 47 47 45 44 44 43 43 43 43 42 42 41 40 40 39 39 39 38 38 38
50 50 51 51 53 54 54 55 55 55 55 54 54 54 54 53 53 52 52 51 50 50 49 49 47 46 45 44 44 44 44 44 44 43 42 42 41 40 40 40 40 40 39
47 49 50 51 53 54 54 54 55 55 55 54 54 54 54 53 53 53 52 52 51 51 50 49 48 48 47 46 45 45 45 45 45 44 44 43 43 42 42 42 41 41 41
45 47 48 50 51 53 54 54 55 55 55 55 54 54 53 53 53 53 53 52 52 51 51 50 50 49 48 48 47 46 46 46 46 46 45 45 44 44 44 44 43 43 42
42 45 47 48 50 52 54 55 55 55 55 55 55 54 54 53 53 53 52 53 52 52 52 52 51 51 49 49 49 48 47 47 47 47 46 46 46 46 46 45 45 45 44
40 41 44 46 48 50 52 53 54 55 55 55 55 55 55 54 53 53 53 53 52 52 52 52 52 51 51 50 50 50 49 48 48 47 47 47 47 47 47 47 46 46 45
40 41 42 43 46 48 50 52 53 54 54 54 54 55 55 54 54 53 53 53 53 53 52 52 52 52 51 51 50 50 50 50 49 48 48 48 48 48 48 48 47 46 47
38 39 40 41 43 46 48 50 51 52 52 53 54 54 55 55 54 53 53 52 52 51 51 51 52 52 52 52 51 51 51 51 50 49 49 49 48 49 48 48 48 48 48
35 36 38 39 41 42 45 47 49 50 51 51 52 52 53 53 54 54 53 52 52 51 51 52 52 52 52 52 52 52 51 51 51 50 49 49 49 48 49 49 49 48 48
35 35 36 37 38 40 42 43 46 48 50 51 51 52 52 52 52 52 53 53 52 52 51 52 51 51 51 51 51 52 52 51 51 50 50 50 50 49 49 50 49 49 48
34 35 35 36 36 38 40 41 42 44 47 49 50 51 52 52 52 51 51 51 51 51 52 52 51 51 50 50 50 50 50 50 50 50 50 50 50 50 50 50 50 49 49
32 33 33 34 35 37 38 39 40 42 43 45 47 48 49 50 50 51 50 50 50 50 51 51 51 50 50 50 50 50 50 50 50 51 51 51 51 51 51 50 50 50 49
29 30 31 31 33 35 36 37 38 40 41 43 44 46 47 47 48 48 49 49 50 50 50 50 50 50 50 49 49 49 50 50 50 50 50 50 51 51 51 51 51 51 50
27 28 29 30 30 31 33 34 35 37 39 40 41 42 44 45 46 46 47 48 48 49 48 49 49 49 49 49 49 49 49 50 50 50 50 49 49 50 50 50 50 50 50
25 26 27 28 29 30 31 32 33 34 36 37 38 40 41 42 43 44 45 45 46 46 47 47 47 48 48 48 49 49 49 49 49 50 50 49 49 49 49 49 49 49 49
25 26 27 28 29 30 30 31 32 33 34 35 36 37 38 39 40 41 42 42 43 44 45 46 46 46 46 46 46 47 47 48 48 48 48 48 48 47 47 47 47 47 48
Wind_Direction
234 234 233 233 233 233 232 233 233 233 233 233 234 233 233 233 234 235 237 237 238 238 239 240 242 243 244 245 247 249 251 252 254 255 257 258 261 264 265 266 266 267 269
233 233 233 233 233 233 233 233 233 234 234 234 233 234 234 234 235 237 237 237 237 238 240 241 243 245 245 246 248 250 252 254 255 256 257 259 261 263 265 266 267 267 268
233 233 233 233 233 232 232 232 232 233 233 234 234 234 235 236 236 237 236 237 238 238 240 241 243 245 245 247 248 250 252 254 255 256 258 260 261 263 264 265 266 267 268
233 233 232 232 231 232 231 231 231 231 232 233 233 234 235 236 237 237 237 237 238 239 240 241 243 244 245 247 249 251 252 253 254 255 256 259 260 262 263 264 265 266 268
232 232 231 231 231 231 231 231 230 231 231 232 232 233 234 235 236 237 238 238 238 239 241 242 243 244 245 247 249 251 252 253 255 256 257 258 260 261 263 264 265 266 268
231 231 230 230 230 230 230 231 231 231 231 231 232 233 234 235 236 237 238 238 239 240 242 243 244 244 246 248 250 252 253 254 254 256 257 258 259 261 262 264 264 266 268
230 230 230 231 230 230 230 230 230 231 231 232 232 233 234 235 236 237 238 238 239 241 243 243 244 245 246 248 250 251 252 254 255 256 257 258 259 261 262 264 264 266 268
230 230 230 231 231 230 230 230 230 231 231 232 232 233 234 235 237 238 239 239 240 242 243 244 245 246 247 248 249 251 251 253 255 256 257 258 259 261 262 263 265 266 266
230 230 230 230 230 229 229 229 230 230 231 231 232 232 233 235 236 238 239 240 240 242 243 244 245 246 247 248 249 251 251 253 254 256 257 258 259 261 262 263 265 265 266
230 230 230 230 229 229 229 229 230 230 231 231 232 232 233 234 236 237 239 240 241 242 243 244 245 246 247 248 249 250 251 253 254 255 257 259 260 261 263 264 265 265 265
229 229 230 230 230 229 229 229 230 231 231 232 232 233 233 234 235 237 238 239 240 241 242 243 245 246 247 248 249 250 251 253 254 255 257 258 259 261 262 263 265 266 266
230 229 230 230 230 229 229 230 230 231 232 232 233 234 234 234 235 236 237 238 239 241 242 244 245 246 247 249 250 251 252 253 255 256 256 257 258 260 262 263 265 266 267
230 229 230 230 230 229 229 230 230 231 232 232 233 234 234 235 236 236 237 238 240 241 243 245 246 247 248 250 251 252 252 253 254 256 256 258 259 260 262 264 265 266 267
230 230 230 230 230 229 229 229 230 231 232 233 234 234 235 235 236 237 238 239 241 242 244 245 246 247 249 250 251 252 252 253 254 255 256 257 259 261 263 264 265 266 267
230 230 229 229 230 230 231 231 231 232 233 234 234 235 236 236 237 238 239 240 242 243 244 246 247 248 249 250 251 252 252 253 254 255 256 257 258 260 262 264 265 266 268
230 230 230 230 230 231 231 232 232 233 233 235 235 236 237 238 239 239 240 241 242 243 245 246 247 248 249 250 251 252 253 253 255 255 256 257 259 261 262 264 265 266 268
231 231 231 231 231 231 232 232 233 233 234 235 236 237 238 238 239 240 241 242 243 244 245 246 247 248 249 251 252 253 254 254 255 256 257 258 259 260 262 264 265 266 267
231 232 233 234 233 232 233 233 234 234 235 236 236 237 238 239 240 240 242 243 244 245 246 246 247 248 249 251 252 253 254 255 256 257 258 258 259 260 262 263 264 265 266
231 232 233 234 234 233 232 233 234 235 235 236 236 236 237 238 239 241 242 243 244 245 246 246 248 249 250 251 252 253 254 255 256 258 258 259 260 261 262 263 263 265 266
234 234 233 234 234 233 233 233 233 234 235 236 237 237 237 238 239 240 241 243 243 244 245 246 248 249 250 251 253 254 254 255 256 257 258 259 260 261 262 262 263 264 265
235 235 234 233 233 233 232 233 233 234 234 235 236 236 237 237 238 239 240 242 243 244 245 246 247 249 250 251 252 253 254 255 256 257 258 258 259 261 262 263 263 264 265
233 233 233 232 233 232 233 234 235 234 235 235 235 235 236 237 238 239 240 242 243 245 246 248 248 249 250 251 252 252 253 254 255 256 257 258 259 261 261 262 262 263 265
233 232 232 234 235 235 236 237 237 237 237 236 236 236 236 237 239 240 241 243 244 246 247 248 250 250 249 250 251 252 252 253 255 256 257 258 259 259 261 262 262 263 265
237 237 237 238 238 237 237 238 239 239 238 237 237 237 238 238 240 241 242 243 245 246 248 249 250 251 251 251 251 252 253 254 255 256 257 257 258 259 260 261 262 263 265
238 240 240 240 239 238 238 238 238 237 237 236 236 238 238 239 240 241 243 244 245 247 248 249 250 251 251 252 253 253 253 254 255 256 256 257 258 259 260 262 263 264 266
240 240 240 239 240 240 239 238 238 238 238 238 238 238 238 239 240 241 242 244 245 246 248 249 249 250 251 252 253 254 255 255 255 255 256 257 258 259 261 262 264 265 266
Height
5700 5706 5712 5718 5724 5729 5735 5740 5745 5750 5755 5760 5764 5768 5773 5777 5781 5784 5788 5791 5795 5798 5802 5805 5808 5811 5814 5816 5819 5821 5822 5824 5826 5828 5830 5831 5832 5833 5834 5835 5835 5836 5836
5687 5694 5700 5706 5712 5718 5724 5729 5735 5740 5745 5750 5755 5760 5764 5768 5772 5776 5780 5783 5787 5791 5795 5798 5801 5804 5807 5810 5812 5814 5816 5818 5820 5822 5823 5824 5826 5827 5828 5829 5829 5830 5830
5675 5681 5688 5695 5701 5707 5713 5719 5725 5730 5735 5740 5745 5750 5755 5759 5763 5767 5771 5775 5779 5783 5787 5790 5794 5797 5800 5802 5805 5807 5809 5811 5813 5814 5816 5818 5819 5821 5822 5822 5823 5823 5824
5661 5668 5675 5682 5689 5695 5701 5708 5713 5719 5725 5730 5736 5741 5746 5750 5755 5759 5763 5767 5771 5775 5779 5782 5786 5789 5792 5794 5797 5800 5802 5804 5806 5807 5809 5811 5812 5814 5815 5816 5816 5816 5817
5648 5655 5663 5670 5677 5683 5690 5696 5703 5708 5714 5720 5726 5731 5736 5741 5745 5749 5753 5757 5762 5766 5770 5774 5777 5780 5783 5786 5789 5792 5794 5796 5798 5800 5801 5803 5805 5806 5808 5809 5809 5810 5810
5636 5643 5650 5657 5665 5671 5678 5685 5692 5698 5704 5710 5715 5721 5726 5731 5736 5740 5744 5749 5753 5757 5760 5764 5768 5771 5775 5778 5780 5783 5785 5788 5790 5792 5794 5795 5797 5798 5800 5801 5802 5802 5803
5624 5631 5638 5645 5653 5660 5667 5674 5680 5687 5693 5699 5705 5711 5716 5721 5726 5731 5735 5739 5744 5747 5751 5755 5758 5762 5765 5769 5771 5774 5776 5779 5781 5783 5785 5787 5789 5790 5792 5793 5794 5794 5795
5613 5620 5626 5633 5641 5648 5655 5662 5669 5675 5682 5688 5694 5700 5706 5711 5716 5721 5725 5730 5734 5738 5742 5745 5749 5752 5756 5759 5762 5765 5767 5770 5772 5774 5776 5778 5780 5782 5783 5784 5785 5786 5787
5602 5609 5615 5622 5629 5636 5644 5650 5657 5664 5670 5677 5683 5689 5694 5700 5705 5710 5715 5719 5724 5728 5732 5736 5739 5742 5746 5749 5752 5755 5758 5760 5763 5765 5767 5769 5771 5772 5774 5775 5776 5778 5778
5591 5598 5604 5611 5618 5625 5632 5638 5646 5652 5659 5665 5671 5678 5683 5689 5694 5699 5704 5709 5714 5718 5722 5726 5729 5733 5736 5739 5742 5745 5748 5751 5753 5756 5758 5760 5761 5763 5764 5766 5767 5768 5769
5580 5587 5593 5600 5606 5613 5620 5627 5634 5641 5647 5654 5660 5666 5672 5677 5683 5688 5693 5698 5702 5707 5711 5715 5719 5723 5726 5729 5732 5735 5738 5741 5743 5746 5748 5750 5752 5753 5755 5756 5757 5758 5759
5569 5576 5583 5589 5595 5602 5609 5616 5623 5629 5636 5642 5649 5655 5661 5666 5672 5677 5682 5687 5691 5696 5700 5705 5709 5712 5716 5719 5721 5724 5727 5730 5733 5735 5738 5740 5742 5743 5745 5746 5747 5748 5749
5559 5565 5572 5578 5585 5591 5598 5605 5611 5618 5625 5631 5637 5643 5649 5655 5661 5666 5671 5675 5680 5685 5689 5693 5698 5701 5705 5708 5711 5714 5717 5719 5722 5724 5727 5729 5731 5733 5734 5736 5737 5738 5739
5549 5555 5561 5567 5574 5580 5587 5594 5600 5607 5613 5620 5626 5632 5638 5644 5649 5654 5659 5664 5669 5673 5678 5682 5686 5690 5693 5696 5699 5703 5705 5708 5711 5713 5716 5718 5720 5722 5723 5725 5726 5727 5728
5540 5545 5551 5557 5563 5570 5576 5582 5589 5595 5602 5608 5615 5621 5626 5632 5637 5643 5648 5653 5657 5662 5666 5670 5674 5678 5682 5685 5688 5691 5694 5697 5699 5702 5704 5706 5708 5710 5712 5714 5715 5716 5717
5531 5536 5541 5547 5553 5559 5565 5572 5578 5584 5590 5597 5603 5609 5615 5620 5626 5631 5636 5641 5645 5650 5654 5658 5662 5666 5669 5672 5675 5678 5682 5685 5687 5690 5692 5695 5697 5699 5700 5702 5703 5704 5705
5522 5527 5532 5537 5542 5548 5554 5560 5567 5573 5579 5585 5591 5597 5603 5608 5614 5619 5624 5629 5633 5638 5642 5646 5650 5654 5657 5660 5663 5666 5669 5672 5675 5678 5680 5682 5684 5686 5688 5689 5690 5692 5693
5514 5518 5523 5528 5532 5537 5543 5549 5555 5561 5567 5573 5579 5585 5590 5596 5601 5607 5612 5617 5621 5626 5630 5634 5637 5641 5644 5647 5650 5653 5656 5660 5662 5665 5667 5669 5671 5673 5675 5677 5678 5679 5681
5506 5509 5514 5518 5523 5527 5532 5538 5543 5549 5555 5561 5567 5572 5578 5583 5589 5594 5599 5604 5609 5613 5617 5621 5624 5628 5632 5635 5638 5641 5644 5647 5649 5652 5654 5656 5659 5661 5662 5664 5666 5667 5668
5498 5501 5505 5509 5513 5518 5522 5527 5532 5537 5543 5549 5554 5560 5565 5571 5576 5582 5587 5591 5596 5600 5604 5608 5612 5615 5619 5622 5625 5628 5631 5634 5637 5639 5641 5644 5646 5647 5649 5650 5652 5654 5655
5490 5493 5497 5501 5504 5508 5512 5517 5521 5526 5531 5537 5542 5548 5553 5559 5564 5569 5574 5579 5583 5588 5592 5596 5599 5603 5606 5609 5612 5615 5617 5620 5623 5626 5628 5630 5632 5634 5635 5637 5639 5640 5642
5482 5485 5489 5493 5496 5500 5504 5508 5512 5516 5520 5526 5531 5536 5541 5546 5551 5557 5561 5566 5571 5575 5579 5582 5586 5590 5593 5596 5599 5602 5604 5607 5610 5612 5615 5617 5619 5620 5622 5623 5625 5627 5628
5476 5479 5482 5485 5488 5491 5495 5499 5502 5506 5510 5515 5519 5524 5529 5534 5539 5544 5549 5554 5558 5562 5566 5570 5573 5577 5580 5583 5585 5588 5591 5593 5596 5598 5601 5603 5605 5606 5608 5610 5611 5613 5614
5469 5472 5475 5478 5481 5484 5487 5490 5493 5497 5501 5505 5509 5514 5519 5524 5528 5533 5537 5541 5545 5549 5553 5557 5560 5564 5567 5569 5572 5575 5577 5579 5582 5585 5587 5589 5591 5592 5594 5596 5598 5599 5601
5463 5465 5468 5471 5473 5476 5479 5482 5485 5489 5492 5496 5500 5504 5509 5513 5517 5521 5525 5529 5533 5537 5541 5544 5547 5551 5554 5556 5559 5561 5564 5566 5568 5571 5573 5575 5577 5579 5581 5582 5584 5585 5587
5456 5459 5461 5464 5467 5469 5472 5475 5478 5481 5484 5488 5492 5495 5499 5503 5507 5510 5514 5517 5521 5525 5528 5531 5535 5537 5540 5543 5545 5548 5550 5552 5555 5557 5560 5562 5564 5566 5568 5569 5571 5572 5573